Time,TemperatureF,DewpointF,PressureIn,WindDirection,WindDirectionDegrees,WindSpeedMPH,WindSpeedGustMPH,Humidity,HourlyPrecipIn,Conditions,Clouds,dailyrainin,SoftwareType,DateUTC
2013-01-15 00:04:00,38.4,22.7,30.18,North,0,0.0,0.0,53,0.00,,,0.00,WUHU216HW,2013-01-15 06:04:00,
2013-01-15 00:09:00,38.4,22.7,30.18,NNE,23,0.0,0.0,53,0.00,,,0.00,WUHU216HW,2013-01-15 06:09:00,
2013-01-15 00:14:00,38.4,22.7,30.18,North,0,0.0,0.0,53,0.00,,,0.00,WUHU216HW,2013-01-15 06:14:00,
2013-01-15 00:19:00,38.3,22.5,30.17,NNE,23,0.0,0.0,53,0.00,,,0.00,WUHU216HW,2013-01-15 06:19:00,
2013-01-15 00:24:00,38.3,22.5,30.16,NNE,23,0.0,0.0,53,0.00,,,0.00,WUHU216HW,2013-01-15 06:24:00,
2013-01-15 00:29:00,38.1,22.4,30.16,NNE,23,0.0,0.0,53,0.00,,,0.00,WUHU216HW,2013-01-15 06:29:00,
2013-01-15 00:34:00,37.9,22.2,30.16,NE,45,0.0,0.0,53,0.00,,,0.00,WUHU216HW,2013-01-15 06:34:00,
2013-01-15 00:39:00,37.9,22.2,30.16,NNE,23,0.0,0.0,53,0.00,,,0.00,WUHU216HW,2013-01-15 06:39:00,
2013-01-15 00:44:00,37.9,22.2,30.16,NE,45,0.0,0.0,53,0.00,,,0.00,WUHU216HW,2013-01-15 06:44:00,
2013-01-15 00:50:00,37.9,22.2,30.15,North,0,0.0,0.0,53,0.00,,,0.00,WUHU216HW,2013-01-15 06:50:00,
2013-01-15 00:55:00,37.7,22.1,30.15,NNE,23,0.0,0.0,53,0.00,,,0.00,WUHU216HW,2013-01-15 06:55:00,
2013-01-15 01:00:00,37.9,22.2,30.15,North,0,0.0,0.0,53,0.00,,,0.00,WUHU216HW,2013-01-15 07:00:00,
2013-01-15 01:05:00,37.9,22.2,30.15,NNE,23,0.0,0.0,53,0.00,,,0.00,WUHU216HW,2013-01-15 07:05:00,
2013-01-15 01:10:00,37.9,22.2,30.15,North,0,0.0,0.0,53,0.00,,,0.00,WUHU216HW,2013-01-15 07:10:00,
2013-01-15 01:15:00,37.9,22.2,30.15,NNE,23,0.0,0.0,53,0.00,,,0.00,WUHU216HW,2013-01-15 07:15:00,
2013-01-15 01:20:00,37.9,22.6,30.15,North,0,4.9,4.9,54,0.00,,,0.00,WUHU216HW,2013-01-15 07:20:00,
2013-01-15 01:25:00,37.9,22.6,30.15,North,0,0.0,4.9,54,0.00,,,0.00,WUHU216HW,2013-01-15 07:25:00,
2013-01-15 01:30:00,37.9,22.6,30.16,NNE,23,0.0,3.3,54,0.00,,,0.00,WUHU216HW,2013-01-15 07:30:00,
2013-01-15 01:35:00,38.1,22.8,30.16,NNE,23,0.0,3.3,54,0.00,,,0.00,WUHU216HW,2013-01-15 07:35:00,
2013-01-15 01:40:00,38.1,22.8,30.17,North,0,2.6,2.6,54,0.00,,,0.00,WUHU216HW,2013-01-15 07:40:00,
2013-01-15 01:45:00,38.1,22.8,30.17,NNE,23,0.0,6.2,54,0.00,,,0.00,WUHU216HW,2013-01-15 07:45:00,
2013-01-15 01:50:00,38.1,22.8,30.17,NNE,23,1.3,6.2,54,0.00,,,0.00,WUHU216HW,2013-01-15 07:50:00,
2013-01-15 01:55:00,38.1,22.8,30.16,NNE,23,0.0,1.3,54,0.00,,,0.00,WUHU216HW,2013-01-15 07:55:00,
2013-01-15 02:01:00,38.1,22.8,30.17,North,0,0.0,0.0,54,0.00,,,0.00,WUHU216HW,2013-01-15 08:01:00,
2013-01-15 02:06:00,38.1,23.2,30.17,North,0,0.0,0.0,55,0.00,,,0.00,WUHU216HW,2013-01-15 08:06:00,
2013-01-15 02:11:00,38.1,23.2,30.18,NNE,23,1.5,5.3,55,0.00,,,0.00,WUHU216HW,2013-01-15 08:11:00,
2013-01-15 02:16:00,38.1,23.2,30.17,NNE,23,0.0,5.3,55,0.00,,,0.00,WUHU216HW,2013-01-15 08:16:00,
2013-01-15 02:21:00,38.1,23.2,30.17,North,0,0.0,3.1,55,0.00,,,0.00,WUHU216HW,2013-01-15 08:21:00,
2013-01-15 02:26:00,38.1,23.2,30.17,North,0,0.0,5.3,55,0.00,,,0.00,WUHU216HW,2013-01-15 08:26:00,
2013-01-15 02:31:00,38.1,23.2,30.16,NNE,23,0.0,5.3,55,0.00,,,0.00,WUHU216HW,2013-01-15 08:31:00,
2013-01-15 02:36:00,37.9,23.1,30.16,NE,45,0.0,0.0,55,0.00,,,0.00,WUHU216HW,2013-01-15 08:36:00,
2013-01-15 02:41:00,37.9,23.1,30.16,NNE,23,0.0,6.7,55,0.00,,,0.00,WUHU216HW,2013-01-15 08:41:00,
2013-01-15 02:46:00,37.9,23.1,30.16,NNE,23,0.0,6.7,55,0.00,,,0.00,WUHU216HW,2013-01-15 08:46:00,
2013-01-15 02:51:00,37.7,22.9,30.16,NNE,23,3.8,5.3,55,0.00,,,0.00,WUHU216HW,2013-01-15 08:51:00,
2013-01-15 02:56:00,37.9,23.1,30.15,NNE,23,0.0,5.3,55,0.00,,,0.00,WUHU216HW,2013-01-15 08:56:00,
2013-01-15 03:01:00,37.9,23.1,30.16,North,0,0.0,3.8,55,0.00,,,0.00,WUHU216HW,2013-01-15 09:01:00,
2013-01-15 03:06:00,37.9,22.6,30.16,NNE,23,2.2,3.1,54,0.00,,,0.00,WUHU216HW,2013-01-15 09:06:00,
2013-01-15 03:11:00,37.9,22.6,30.15,NE,45,0.0,3.1,54,0.00,,,0.00,WUHU216HW,2013-01-15 09:11:00,
2013-01-15 03:16:00,37.9,22.6,30.16,North,0,7.1,10.2,54,0.00,,,0.00,WUHU216HW,2013-01-15 09:16:00,
2013-01-15 03:21:00,37.7,22.1,30.16,NNE,23,0.0,10.2,53,0.00,,,0.00,WUHU216HW,2013-01-15 09:21:00,
2013-01-15 03:26:00,37.7,22.1,30.16,NE,45,0.0,8.0,53,0.00,,,0.00,WUHU216HW,2013-01-15 09:26:00,
2013-01-15 03:32:00,37.5,21.9,30.15,NNE,23,0.0,5.5,53,0.00,,,0.00,WUHU216HW,2013-01-15 09:32:00,
2013-01-15 03:37:00,37.5,21.9,30.15,NNE,23,10.2,10.2,53,0.00,,,0.00,WUHU216HW,2013-01-15 09:37:00,
2013-01-15 03:42:00,37.5,21.9,30.17,North,0,0.0,10.2,53,0.00,,,0.00,WUHU216HW,2013-01-15 09:42:00,
2013-01-15 03:47:00,37.5,21.9,30.17,NNE,23,0.0,10.2,53,0.00,,,0.00,WUHU216HW,2013-01-15 09:47:00,
2013-01-15 03:52:00,37.7,22.1,30.18,ENE,68,0.0,5.1,53,0.00,,,0.00,WUHU216HW,2013-01-15 09:52:00,
2013-01-15 03:57:00,37.7,22.5,30.17,North,0,0.0,0.0,54,0.00,,,0.00,WUHU216HW,2013-01-15 09:57:00,
2013-01-15 04:02:00,37.7,22.5,30.17,North,0,0.0,0.0,54,0.00,,,0.00,WUHU216HW,2013-01-15 10:02:00,
2013-01-15 04:07:00,37.7,22.5,30.17,NNE,23,0.0,3.3,54,0.00,,,0.00,WUHU216HW,2013-01-15 10:07:00,
2013-01-15 04:12:00,37.7,22.5,30.17,NNW,338,4.9,4.9,54,0.00,,,0.00,WUHU216HW,2013-01-15 10:12:00,
2013-01-15 04:17:00,37.7,22.5,30.16,NNE,23,2.9,4.9,54,0.00,,,0.00,WUHU216HW,2013-01-15 10:17:00,
2013-01-15 04:22:00,39.7,26.5,30.16,NNE,23,0.0,2.9,59,0.00,,,0.00,WUHU216HW,2013-01-15 10:22:00,
2013-01-15 04:27:00,39.0,23.6,30.15,NE,45,2.2,2.2,54,0.00,,,0.00,WUHU216HW,2013-01-15 10:27:00,
2013-01-15 04:32:00,38.4,23.1,30.15,NNE,23,6.0,6.0,54,0.00,,,0.00,WUHU216HW,2013-01-15 10:32:00,
2013-01-15 04:37:00,37.9,22.6,30.14,North,0,10.0,10.0,54,0.00,,,0.00,WUHU216HW,2013-01-15 10:37:00,
2013-01-15 04:42:00,37.5,22.8,30.14,North,0,5.5,10.0,55,0.00,,,0.00,WUHU216HW,2013-01-15 10:42:00,
2013-01-15 04:47:00,37.2,22.4,30.15,North,0,0.0,8.7,55,0.00,,,0.00,WUHU216HW,2013-01-15 10:47:00,
2013-01-15 04:52:00,37.2,22.4,30.18,North,0,0.0,5.5,55,0.00,,,0.00,WUHU216HW,2013-01-15 10:52:00,
2013-01-15 04:57:00,37.2,22.4,30.16,NNE,23,0.0,0.0,55,0.00,,,0.00,WUHU216HW,2013-01-15 10:57:00,
2013-01-15 05:02:00,37.2,22.4,30.15,NNE,23,0.0,0.0,55,0.00,,,0.00,WUHU216HW,2013-01-15 11:02:00,
2013-01-15 05:07:00,37.2,22.4,30.14,North,0,0.0,0.0,55,0.00,,,0.00,WUHU216HW,2013-01-15 11:07:00,
2013-01-15 05:12:00,37.2,22.9,30.15,North,0,0.0,0.0,56,0.00,,,0.00,WUHU216HW,2013-01-15 11:12:00,
2013-01-15 05:17:00,37.2,22.9,30.14,NNE,23,0.0,0.0,56,0.00,,,0.00,WUHU216HW,2013-01-15 11:17:00,
2013-01-15 05:23:00,37.0,22.7,30.14,NNE,23,0.0,0.0,56,0.00,,,0.00,WUHU216HW,2013-01-15 11:23:00,
2013-01-15 05:28:00,37.0,23.1,30.16,NNE,23,0.0,0.0,57,0.00,,,0.00,WUHU216HW,2013-01-15 11:28:00,
2013-01-15 05:33:00,37.0,23.6,30.17,NNE,23,0.0,0.0,58,0.00,,,0.00,WUHU216HW,2013-01-15 11:33:00,
2013-01-15 05:38:00,37.0,23.6,30.19,East,90,0.0,0.0,58,0.00,,,0.00,WUHU216HW,2013-01-15 11:38:00,
2013-01-15 05:43:00,37.0,24.0,30.18,NE,45,0.0,0.0,59,0.00,,,0.00,WUHU216HW,2013-01-15 11:43:00,
2013-01-15 05:48:00,37.0,24.0,30.19,ENE,68,0.0,0.0,59,0.00,,,0.00,WUHU216HW,2013-01-15 11:48:00,
2013-01-15 05:53:00,36.6,24.5,30.17,NE,45,0.0,0.0,61,0.00,,,0.00,WUHU216HW,2013-01-15 11:53:00,
2013-01-15 05:58:00,36.5,24.3,30.16,NNE,23,0.0,4.0,61,0.00,,,0.00,WUHU216HW,2013-01-15 11:58:00,
2013-01-15 06:06:00,36.5,24.3,30.16,NNE,23,0.0,4.0,61,0.00,,,0.00,WUHU216HW,2013-01-15 12:06:00,
2013-01-15 06:11:00,35.7,24.7,30.18,NNE,23,0.0,5.5,64,0.00,,,0.00,WUHU216HW,2013-01-15 12:11:00,
2013-01-15 06:16:00,35.4,24.8,30.20,North,0,0.0,5.5,65,0.00,,,0.00,WUHU216HW,2013-01-15 12:16:00,
2013-01-15 06:21:00,35.4,25.1,30.20,NNE,23,0.0,0.0,66,0.00,,,0.00,WUHU216HW,2013-01-15 12:21:00,
2013-01-15 06:26:00,35.2,25.3,30.19,North,0,1.7,1.7,67,0.00,,,0.00,WUHU216HW,2013-01-15 12:26:00,
2013-01-15 06:31:00,35.2,25.3,30.19,NE,45,0.0,1.7,67,0.00,,,0.00,WUHU216HW,2013-01-15 12:31:00,
2013-01-15 06:36:00,34.7,25.1,30.18,NNE,23,2.9,2.9,68,0.00,,,0.00,WUHU216HW,2013-01-15 12:36:00,
2013-01-15 06:41:00,34.7,25.5,30.18,NE,45,0.0,2.9,69,0.00,,,0.00,WUHU216HW,2013-01-15 12:41:00,
2013-01-15 06:46:00,34.5,25.3,30.17,NNE,23,0.0,4.6,69,0.00,,,0.00,WUHU216HW,2013-01-15 12:46:00,
2013-01-15 06:51:00,34.5,25.7,30.18,NNE,23,0.0,4.6,70,0.00,,,0.00,WUHU216HW,2013-01-15 12:51:00,
2013-01-15 06:56:00,34.5,26.0,30.18,NNE,23,0.0,0.0,71,0.00,,,0.00,WUHU216HW,2013-01-15 12:56:00,
2013-01-15 07:01:00,34.5,26.0,30.18,NE,45,0.0,0.0,71,0.00,,,0.00,WUHU216HW,2013-01-15 13:01:00,
2013-01-15 07:06:00,34.3,26.1,30.17,North,0,3.8,4.6,72,0.00,,,0.00,WUHU216HW,2013-01-15 13:06:00,
2013-01-15 07:11:00,34.3,26.4,30.16,NE,45,2.0,4.6,73,0.00,,,0.00,WUHU216HW,2013-01-15 13:11:00,
2013-01-15 07:16:00,34.3,26.4,30.17,NNE,23,0.0,3.8,73,0.00,,,0.00,WUHU216HW,2013-01-15 13:16:00,
2013-01-15 07:21:00,34.3,26.4,30.17,NE,45,0.0,2.0,73,0.00,,,0.00,WUHU216HW,2013-01-15 13:21:00,
2013-01-15 07:26:00,34.3,26.4,30.17,North,0,7.6,7.6,73,0.00,,,0.00,WUHU216HW,2013-01-15 13:26:00,
2013-01-15 07:31:00,34.3,26.4,30.16,NE,45,0.0,7.6,73,0.00,,,0.00,WUHU216HW,2013-01-15 13:31:00,
2013-01-15 07:36:00,34.3,26.8,30.17,NE,45,2.9,7.6,74,0.00,,,0.00,WUHU216HW,2013-01-15 13:36:00,
2013-01-15 07:41:00,34.3,26.8,30.16,NE,45,0.0,3.5,74,0.00,,,0.00,WUHU216HW,2013-01-15 13:41:00,
2013-01-15 07:47:00,34.3,27.1,30.16,NNE,23,0.0,3.5,75,0.00,,,0.00,WUHU216HW,2013-01-15 13:47:00,
2013-01-15 07:52:00,34.3,27.1,30.16,NE,45,0.0,4.0,75,0.00,,,0.00,WUHU216HW,2013-01-15 13:52:00,
2013-01-15 07:57:00,34.3,27.1,30.16,NE,45,0.0,4.0,75,0.00,,,0.00,WUHU216HW,2013-01-15 13:57:00,
2013-01-15 08:02:00,34.3,27.1,30.16,NNE,23,6.9,6.9,75,0.00,,,0.00,WUHU216HW,2013-01-15 14:02:00,
2013-01-15 08:07:00,34.3,27.1,30.16,NNE,23,0.0,7.3,75,0.00,,,0.00,WUHU216HW,2013-01-15 14:07:00,
2013-01-15 08:12:00,34.3,27.1,30.16,NNE,23,4.2,7.3,75,0.00,,,0.00,WUHU216HW,2013-01-15 14:12:00,
2013-01-15 08:17:00,34.3,27.1,30.16,NE,45,5.5,6.4,75,0.00,,,0.00,WUHU216HW,2013-01-15 14:17:00,
2013-01-15 08:22:00,34.3,27.1,30.16,NNE,23,0.0,6.4,75,0.00,,,0.00,WUHU216HW,2013-01-15 14:22:00,
2013-01-15 08:27:00,34.3,27.1,30.17,NNE,23,9.1,9.1,75,0.00,,,0.00,WUHU216HW,2013-01-15 14:27:00,
2013-01-15 08:32:00,34.3,27.1,30.17,NE,45,5.3,9.1,75,0.00,,,0.00,WUHU216HW,2013-01-15 14:32:00,
2013-01-15 08:37:00,34.3,27.1,30.17,NNE,23,6.0,6.0,75,0.00,,,0.00,WUHU216HW,2013-01-15 14:37:00,
2013-01-15 08:42:00,34.3,27.1,30.16,NE,45,0.0,6.0,75,0.00,,,0.00,WUHU216HW,2013-01-15 14:42:00,
2013-01-15 08:47:00,34.5,27.3,30.17,North,0,2.9,2.9,75,0.00,,,0.00,WUHU216HW,2013-01-15 14:47:00,
2013-01-15 08:52:00,34.5,27.3,30.18,NNE,23,0.0,6.4,75,0.00,,,0.00,WUHU216HW,2013-01-15 14:52:00,
2013-01-15 08:57:00,34.3,27.1,30.17,NE,45,6.0,6.4,75,0.00,,,0.00,WUHU216HW,2013-01-15 14:57:00,
2013-01-15 09:02:00,34.3,27.1,30.17,NNE,23,0.0,8.5,75,0.00,,,0.00,WUHU216HW,2013-01-15 15:02:00,
2013-01-15 09:07:00,34.5,27.3,30.17,NNE,23,0.0,8.5,75,0.00,,,0.00,WUHU216HW,2013-01-15 15:07:00,
2013-01-15 09:12:00,34.7,27.5,30.17,NNE,23,0.0,2.6,75,0.00,,,0.00,WUHU216HW,2013-01-15 15:12:00,
2013-01-15 09:17:00,34.8,27.6,30.17,NNE,23,3.3,3.3,75,0.00,,,0.00,WUHU216HW,2013-01-15 15:17:00,
2013-01-15 09:22:00,34.8,27.6,30.17,ENE,68,0.0,4.9,75,0.00,,,0.00,WUHU216HW,2013-01-15 15:22:00,
2013-01-15 09:27:00,34.8,27.6,30.17,ENE,68,0.0,4.9,75,0.00,,,0.00,WUHU216HW,2013-01-15 15:27:00,
2013-01-15 09:32:00,34.8,27.6,30.17,NE,45,3.3,6.7,75,0.00,,,0.00,WUHU216HW,2013-01-15 15:32:00,
2013-01-15 09:37:00,34.8,27.6,30.17,NE,45,0.0,6.7,75,0.00,,,0.00,WUHU216HW,2013-01-15 15:37:00,
2013-01-15 09:43:00,35.2,28.0,30.16,NE,45,2.4,3.3,75,0.00,,,0.00,WUHU216HW,2013-01-15 15:43:00,
2013-01-15 09:48:00,35.2,28.0,30.17,NE,45,0.0,2.4,75,0.00,,,0.00,WUHU216HW,2013-01-15 15:48:00,
2013-01-15 09:53:00,35.2,28.0,30.17,NNE,23,0.0,2.4,75,0.00,,,0.00,WUHU216HW,2013-01-15 15:53:00,
2013-01-15 09:58:00,35.4,27.8,30.18,ENE,68,2.4,2.4,74,0.00,,,0.00,WUHU216HW,2013-01-15 15:58:00,
2013-01-15 10:03:00,35.7,28.2,30.17,NNE,23,0.0,2.4,74,0.00,,,0.00,WUHU216HW,2013-01-15 16:03:00,
2013-01-15 10:08:00,35.7,28.2,30.18,NNE,23,0.0,2.4,74,0.00,,,0.00,WUHU216HW,2013-01-15 16:08:00,
2013-01-15 10:13:00,35.9,28.4,30.17,North,0,0.0,0.0,74,0.00,,,0.00,WUHU216HW,2013-01-15 16:13:00,
2013-01-15 10:18:00,36.1,28.6,30.17,North,0,3.5,3.5,74,0.00,,,0.00,WUHU216HW,2013-01-15 16:18:00,
2013-01-15 10:23:00,35.9,28.4,30.18,North,0,5.3,5.3,74,0.00,,,0.00,WUHU216HW,2013-01-15 16:23:00,
2013-01-15 10:28:00,36.1,28.6,30.17,NNE,23,0.0,5.3,74,0.00,,,0.00,WUHU216HW,2013-01-15 16:28:00,
2013-01-15 10:33:00,36.1,28.6,30.17,North,0,2.6,5.3,74,0.00,,,0.00,WUHU216HW,2013-01-15 16:33:00,
2013-01-15 10:38:00,36.3,28.7,30.17,North,0,0.0,6.0,74,0.00,,,0.00,WUHU216HW,2013-01-15 16:38:00,
2013-01-15 10:43:00,36.6,29.1,30.16,NE,45,0.0,6.0,74,0.00,,,0.00,WUHU216HW,2013-01-15 16:43:00,
2013-01-15 10:48:00,36.8,29.3,30.16,North,0,0.0,5.3,74,0.00,,,0.00,WUHU216HW,2013-01-15 16:48:00,
2013-01-15 10:53:00,37.0,29.5,30.16,North,0,3.8,9.3,74,0.00,,,0.00,WUHU216HW,2013-01-15 16:53:00,
2013-01-15 10:58:00,37.2,29.6,30.16,North,0,0.0,9.3,74,0.00,,,0.00,WUHU216HW,2013-01-15 16:58:00,
2013-01-15 11:03:00,37.2,29.3,30.16,NNE,23,0.0,3.8,73,0.00,,,0.00,WUHU216HW,2013-01-15 17:03:00,
2013-01-15 11:08:00,37.4,29.8,30.16,NNW,338,0.0,0.0,74,0.00,,,0.00,WUHU216HW,2013-01-15 17:08:00,
2013-01-15 11:13:00,37.4,29.5,30.16,NNW,338,0.0,3.8,73,0.00,,,0.00,WUHU216HW,2013-01-15 17:13:00,
2013-01-15 11:18:00,37.4,29.5,30.16,North,0,3.3,3.8,73,0.00,,,0.00,WUHU216HW,2013-01-15 17:18:00,
2013-01-15 11:23:00,37.4,29.5,30.15,North,0,9.1,9.1,73,0.00,,,0.00,WUHU216HW,2013-01-15 17:23:00,
2013-01-15 11:28:00,37.4,29.5,30.16,NNE,23,0.0,9.1,73,0.00,,,0.00,WUHU216HW,2013-01-15 17:28:00,
2013-01-15 11:33:00,37.4,29.5,30.16,NNW,338,5.1,9.1,73,0.00,,,0.00,WUHU216HW,2013-01-15 17:33:00,
2013-01-15 11:38:00,37.5,30.0,30.16,North,0,7.3,7.3,74,0.00,,,0.00,WUHU216HW,2013-01-15 17:38:00,
2013-01-15 11:43:00,37.5,29.7,30.16,WNW,293,0.0,7.3,73,0.00,,,0.00,WUHU216HW,2013-01-15 17:43:00,
2013-01-15 11:48:00,37.2,29.3,30.16,NNW,338,0.0,7.3,73,0.00,,,0.00,WUHU216HW,2013-01-15 17:48:00,
2013-01-15 11:53:00,37.2,29.3,30.16,NNE,23,0.0,5.1,73,0.00,,,0.00,WUHU216HW,2013-01-15 17:53:00,
2013-01-15 11:58:00,37.2,29.3,30.16,North,0,0.0,0.0,73,0.00,,,0.00,WUHU216HW,2013-01-15 17:58:00,
2013-01-15 12:03:00,37.2,29.6,30.16,North,0,0.0,0.0,74,0.00,,,0.00,WUHU216HW,2013-01-15 18:03:00,
2013-01-15 12:08:00,37.7,30.2,30.15,North,0,0.0,0.0,74,0.00,,,0.00,WUHU216HW,2013-01-15 18:08:00,
2013-01-15 12:13:00,37.9,30.3,30.15,NNE,23,0.0,4.0,74,0.00,,,0.00,WUHU216HW,2013-01-15 18:13:00,
2013-01-15 12:18:00,38.1,30.5,30.15,NNE,23,0.0,4.0,74,0.00,,,0.00,WUHU216HW,2013-01-15 18:18:00,
2013-01-15 12:23:00,38.1,30.2,30.15,North,0,0.0,5.5,73,0.00,,,0.00,WUHU216HW,2013-01-15 18:23:00,
2013-01-15 12:28:00,38.3,30.3,30.15,North,0,0.0,5.5,73,0.00,,,0.00,WUHU216HW,2013-01-15 18:28:00,
2013-01-15 12:34:00,38.3,30.3,30.15,NNE,23,0.0,6.7,73,0.00,,,0.00,WUHU216HW,2013-01-15 18:34:00,
2013-01-15 12:39:00,38.4,30.5,30.14,North,0,0.0,6.7,73,0.00,,,0.00,WUHU216HW,2013-01-15 18:39:00,
2013-01-15 12:44:00,38.4,30.5,30.14,North,0,5.1,5.1,73,0.00,,,0.00,WUHU216HW,2013-01-15 18:44:00,
2013-01-15 12:49:00,38.8,30.8,30.13,NNW,338,2.4,5.1,73,0.00,,,0.00,WUHU216HW,2013-01-15 18:49:00,
2013-01-15 12:54:00,38.8,30.8,30.13,NE,45,0.0,4.2,73,0.00,,,0.00,WUHU216HW,2013-01-15 18:54:00,
2013-01-15 12:59:00,38.8,30.8,30.14,North,0,0.0,5.5,73,0.02,,,0.02,WUHU216HW,2013-01-15 18:59:00,
2013-01-15 13:04:00,38.4,30.2,30.14,North,0,3.5,8.7,72,0.02,,,0.02,WUHU216HW,2013-01-15 19:04:00,
2013-01-15 13:09:00,38.4,30.2,30.14,NE,45,0.0,8.7,72,0.02,,,0.02,WUHU216HW,2013-01-15 19:09:00,
2013-01-15 13:14:00,38.4,30.2,30.13,North,0,0.0,7.1,72,0.02,,,0.02,WUHU216HW,2013-01-15 19:14:00,
2013-01-15 13:19:00,38.8,30.2,30.13,NNW,338,0.0,7.1,71,0.02,,,0.02,WUHU216HW,2013-01-15 19:19:00,
2013-01-15 13:24:00,38.8,30.2,30.12,North,0,0.0,6.4,71,0.02,,,0.02,WUHU216HW,2013-01-15 19:24:00,
2013-01-15 13:29:00,39.0,30.3,30.12,North,0,6.4,6.4,71,0.02,,,0.02,WUHU216HW,2013-01-15 19:29:00,
2013-01-15 13:34:00,39.2,30.5,30.12,North,0,6.7,6.7,71,0.02,,,0.02,WUHU216HW,2013-01-15 19:34:00,
2013-01-15 13:39:00,39.3,30.7,30.12,North,0,1.1,6.7,71,0.02,,,0.02,WUHU216HW,2013-01-15 19:39:00,
2013-01-15 13:44:00,39.3,30.3,30.14,NW,315,0.0,6.7,70,0.02,,,0.02,WUHU216HW,2013-01-15 19:44:00,
2013-01-15 13:49:00,39.0,30.0,30.13,NNW,338,6.7,6.7,70,0.02,,,0.02,WUHU216HW,2013-01-15 19:49:00,
2013-01-15 13:54:00,39.0,30.0,30.13,WNW,293,2.4,6.7,70,0.02,,,0.02,WUHU216HW,2013-01-15 19:54:00,
2013-01-15 13:59:00,39.0,30.0,30.13,North,0,0.0,6.7,70,0.00,,,0.02,WUHU216HW,2013-01-15 19:59:00,
2013-01-15 14:04:00,39.0,30.0,30.13,North,0,0.0,0.0,70,0.00,,,0.02,WUHU216HW,2013-01-15 20:04:00,
2013-01-15 14:09:00,39.0,29.6,30.13,NNE,23,0.0,0.0,69,0.00,,,0.02,WUHU216HW,2013-01-15 20:09:00,
2013-01-15 14:14:00,39.0,29.6,30.13,NNW,338,0.0,5.5,69,0.00,,,0.02,WUHU216HW,2013-01-15 20:14:00,
2013-01-15 14:19:00,39.3,30.0,30.13,North,0,0.0,5.5,69,0.00,,,0.02,WUHU216HW,2013-01-15 20:19:00,
2013-01-15 14:24:00,39.3,30.0,30.13,North,0,0.0,4.2,69,0.00,,,0.02,WUHU216HW,2013-01-15 20:24:00,
2013-01-15 14:30:00,39.0,29.6,30.13,NNW,338,1.3,2.9,69,0.00,,,0.02,WUHU216HW,2013-01-15 20:30:00,
2013-01-15 14:35:00,39.0,29.6,30.12,NNE,23,0.0,1.3,69,0.00,,,0.02,WUHU216HW,2013-01-15 20:35:00,
2013-01-15 14:40:00,39.3,30.3,30.12,NNW,338,2.0,7.6,70,0.00,,,0.02,WUHU216HW,2013-01-15 20:40:00,
2013-01-15 14:45:00,39.3,30.0,30.12,North,0,0.0,7.6,69,0.00,,,0.02,WUHU216HW,2013-01-15 20:45:00,
2013-01-15 14:50:00,39.3,30.0,30.12,NNE,23,2.0,2.0,69,0.00,,,0.02,WUHU216HW,2013-01-15 20:50:00,
2013-01-15 14:55:00,39.5,30.1,30.13,NNE,23,8.5,8.5,69,0.00,,,0.02,WUHU216HW,2013-01-15 20:55:00,
2013-01-15 15:00:00,39.7,29.9,30.13,NNE,23,0.0,8.5,68,0.00,,,0.02,WUHU216HW,2013-01-15 21:00:00,
2013-01-15 15:05:00,39.3,29.2,30.13,West,270,0.0,8.5,67,0.00,,,0.02,WUHU216HW,2013-01-15 21:05:00,
2013-01-15 15:10:00,39.3,29.6,30.13,NNW,338,4.6,4.6,68,0.00,,,0.02,WUHU216HW,2013-01-15 21:10:00,
2013-01-15 15:15:00,39.3,29.2,30.13,North,0,0.0,4.6,67,0.00,,,0.02,WUHU216HW,2013-01-15 21:15:00,
2013-01-15 15:20:00,39.3,29.6,30.13,WNW,293,0.0,4.6,68,0.00,,,0.02,WUHU216HW,2013-01-15 21:20:00,
2013-01-15 15:25:00,39.5,29.4,30.13,WNW,293,0.0,2.0,67,0.00,,,0.02,WUHU216HW,2013-01-15 21:25:00,
2013-01-15 15:30:00,39.5,29.4,30.13,NNE,23,6.0,6.2,67,0.00,,,0.02,WUHU216HW,2013-01-15 21:30:00,
2013-01-15 15:35:00,39.5,29.4,30.13,NNE,23,1.1,6.2,67,0.00,,,0.02,WUHU216HW,2013-01-15 21:35:00,
2013-01-15 15:41:00,39.9,29.7,30.13,North,0,2.0,6.0,67,0.00,,,0.02,WUHU216HW,2013-01-15 21:41:00,
2013-01-15 15:46:00,39.9,29.7,30.13,North,0,2.2,4.4,67,0.00,,,0.02,WUHU216HW,2013-01-15 21:46:00,
2013-01-15 15:51:00,39.7,29.6,30.14,NW,315,0.0,2.9,67,0.00,,,0.02,WUHU216HW,2013-01-15 21:51:00,
2013-01-15 15:56:00,40.6,29.7,30.14,North,0,0.0,3.8,65,0.00,,,0.02,WUHU216HW,2013-01-15 21:56:00,
2013-01-15 16:01:00,39.9,28.6,30.14,North,0,0.0,3.8,64,0.00,,,0.02,WUHU216HW,2013-01-15 22:01:00,
2013-01-15 16:06:00,39.9,29.0,30.15,NNE,23,0.0,1.7,65,0.00,,,0.02,WUHU216HW,2013-01-15 22:06:00,
2013-01-15 16:11:00,39.9,29.0,30.14,North,0,0.0,0.0,65,0.00,,,0.02,WUHU216HW,2013-01-15 22:11:00,
2013-01-15 16:16:00,39.9,29.0,30.14,NNW,338,0.0,10.0,65,0.00,,,0.02,WUHU216HW,2013-01-15 22:16:00,
2013-01-15 16:21:00,39.5,28.2,30.15,North,0,2.4,10.0,64,0.00,,,0.02,WUHU216HW,2013-01-15 22:21:00,
2013-01-15 16:26:00,39.5,28.2,30.15,North,0,0.0,4.6,64,0.00,,,0.02,WUHU216HW,2013-01-15 22:26:00,
2013-01-15 16:31:00,39.3,28.1,30.15,NNW,338,0.0,2.9,64,0.00,,,0.02,WUHU216HW,2013-01-15 22:31:00,
2013-01-15 16:36:00,39.3,28.1,30.15,NNW,338,4.9,4.9,64,0.00,,,0.02,WUHU216HW,2013-01-15 22:36:00,
2013-01-15 16:41:00,39.3,28.1,30.15,NNW,338,8.7,8.7,64,0.00,,,0.02,WUHU216HW,2013-01-15 22:41:00,
2013-01-15 16:46:00,39.3,28.1,30.15,NNW,338,0.0,8.7,64,0.00,,,0.02,WUHU216HW,2013-01-15 22:46:00,
2013-01-15 16:51:00,39.3,28.1,30.15,NNE,23,0.0,0.0,64,0.00,,,0.02,WUHU216HW,2013-01-15 22:51:00,
2013-01-15 16:56:00,39.3,28.1,30.16,North,0,0.0,0.0,64,0.00,,,0.02,WUHU216HW,2013-01-15 22:56:00,
2013-01-15 17:01:00,39.3,28.1,30.15,NNW,338,1.5,7.3,64,0.00,,,0.02,WUHU216HW,2013-01-15 23:01:00,
2013-01-15 17:06:00,39.3,28.1,30.15,NNE,23,7.3,7.3,64,0.00,,,0.02,WUHU216HW,2013-01-15 23:06:00,
2013-01-15 17:11:00,39.2,27.5,30.15,NNW,338,1.1,8.0,63,0.00,,,0.02,WUHU216HW,2013-01-15 23:11:00,
2013-01-15 17:17:00,39.2,27.9,30.15,North,0,10.7,10.7,64,0.00,,,0.02,WUHU216HW,2013-01-15 23:17:00,
2013-01-15 17:22:00,39.3,28.1,30.16,NNE,23,3.8,10.7,64,0.00,,,0.02,WUHU216HW,2013-01-15 23:22:00,
2013-01-15 17:27:00,39.3,28.1,30.16,NW,315,0.0,10.7,64,0.00,,,0.02,WUHU216HW,2013-01-15 23:27:00,
2013-01-15 17:32:00,39.2,27.5,30.17,North,0,0.0,5.8,63,0.00,,,0.02,WUHU216HW,2013-01-15 23:32:00,
2013-01-15 17:37:00,39.0,27.3,30.16,North,0,1.5,1.5,63,0.00,,,0.02,WUHU216HW,2013-01-15 23:37:00,
2013-01-15 17:42:00,39.0,27.3,30.15,NNW,338,0.0,1.5,63,0.00,,,0.02,WUHU216HW,2013-01-15 23:42:00,
2013-01-15 17:47:00,39.0,27.3,30.15,NW,315,0.0,0.0,63,0.00,,,0.02,WUHU216HW,2013-01-15 23:47:00,
2013-01-15 17:52:00,39.0,27.3,30.15,NNE,23,5.5,5.5,63,0.00,,,0.02,WUHU216HW,2013-01-15 23:52:00,
2013-01-15 17:57:00,39.0,27.3,30.16,NNE,23,8.9,8.9,63,0.00,,,0.02,WUHU216HW,2013-01-15 23:57:00,
2013-01-15 18:02:00,39.0,27.3,30.16,NE,45,0.0,8.9,63,0.00,,,0.02,WUHU216HW,2013-01-16 00:02:00,
2013-01-15 18:07:00,39.0,27.3,30.16,NNE,23,6.9,8.9,63,0.00,,,0.02,WUHU216HW,2013-01-16 00:07:00,
2013-01-15 18:12:00,39.0,27.3,30.18,North,0,3.3,6.9,63,0.00,,,0.02,WUHU216HW,2013-01-16 00:12:00,
2013-01-15 18:17:00,39.0,27.3,30.18,NW,315,0.0,5.5,63,0.00,,,0.02,WUHU216HW,2013-01-16 00:17:00,
2013-01-15 18:22:00,39.0,27.3,30.17,NNW,338,0.6,3.3,63,0.00,,,0.02,WUHU216HW,2013-01-16 00:22:00,
2013-01-15 18:28:00,39.0,27.3,30.17,North,0,0.0,2.4,63,0.00,,,0.02,WUHU216HW,2013-01-16 00:28:00,
2013-01-15 18:33:00,39.0,27.3,30.18,North,0,0.0,2.4,63,0.00,,,0.02,WUHU216HW,2013-01-16 00:33:00,
2013-01-15 18:38:00,39.0,27.3,30.18,North,0,0.0,0.0,63,0.00,,,0.02,WUHU216HW,2013-01-16 00:38:00,
2013-01-15 18:43:00,38.8,27.2,30.18,North,0,0.0,5.8,63,0.00,,,0.02,WUHU216HW,2013-01-16 00:43:00,
2013-01-15 18:48:00,39.0,27.3,30.18,NNE,23,7.3,7.3,63,0.00,,,0.02,WUHU216HW,2013-01-16 00:48:00,
2013-01-15 18:53:00,38.8,27.2,30.19,NNW,338,0.0,7.3,63,0.00,,,0.02,WUHU216HW,2013-01-16 00:53:00,
2013-01-15 18:58:00,38.8,27.2,30.19,North,0,0.0,7.3,63,0.00,,,0.02,WUHU216HW,2013-01-16 00:58:00,
2013-01-15 19:03:00,38.6,27.2,30.19,West,270,0.0,6.9,63,0.00,,,0.02,WUHU216HW,2013-01-16 01:03:00,
2013-01-15 19:08:00,38.6,27.0,30.19,NW,315,0.0,6.9,63,0.00,,,0.02,WUHU216HW,2013-01-16 01:08:00,
2013-01-15 19:13:00,38.8,27.2,30.19,NNW,338,0.0,3.5,63,0.00,,,0.02,WUHU216HW,2013-01-16 01:13:00,
2013-01-15 19:18:00,38.4,27.0,30.19,NNW,338,0.0,0.0,62,0.00,,,0.02,WUHU216HW,2013-01-16 01:18:00,
2013-01-15 19:23:00,38.4,26.9,30.19,North,0,2.9,2.9,63,0.00,,,0.02,WUHU216HW,2013-01-16 01:23:00,
2013-01-15 19:28:00,38.4,26.9,30.19,North,0,2.0,5.5,63,0.00,,,0.02,WUHU216HW,2013-01-16 01:28:00,
2013-01-15 19:33:00,38.3,26.5,30.19,NNE,23,0.0,5.5,63,0.00,,,0.02,WUHU216HW,2013-01-16 01:33:00,
2013-01-15 19:38:00,38.3,26.7,30.20,NNW,338,0.0,1.5,63,0.00,,,0.02,WUHU216HW,2013-01-16 01:38:00,
2013-01-15 19:43:00,38.3,26.7,30.19,NNW,338,7.3,7.3,63,0.00,,,0.02,WUHU216HW,2013-01-16 01:43:00,
2013-01-15 19:48:00,38.1,26.2,30.19,North,0,5.1,8.9,62,0.00,,,0.02,WUHU216HW,2013-01-16 01:48:00,
2013-01-15 19:53:00,38.1,26.2,30.19,NNE,23,0.0,8.9,62,0.00,,,0.02,WUHU216HW,2013-01-16 01:53:00,
2013-01-15 19:58:00,37.9,25.6,30.20,NNW,338,0.0,8.2,61,0.00,,,0.02,WUHU216HW,2013-01-16 01:58:00,
2013-01-15 20:04:00,38.1,26.2,30.19,North,0,0.0,2.0,62,0.00,,,0.02,WUHU216HW,2013-01-16 02:04:00,
2013-01-15 20:09:00,37.9,26.0,30.19,North,0,0.0,0.8,62,0.00,,,0.02,WUHU216HW,2013-01-16 02:09:00,
2013-01-15 20:14:00,37.9,26.0,30.19,NNW,338,0.0,0.8,62,0.00,,,0.02,WUHU216HW,2013-01-16 02:14:00,
2013-01-15 20:19:00,37.9,26.0,30.20,NNE,23,0.0,0.0,62,0.00,,,0.02,WUHU216HW,2013-01-16 02:19:00,
2013-01-15 20:24:00,37.9,26.0,30.20,WNW,293,0.0,0.0,62,0.00,,,0.02,WUHU216HW,2013-01-16 02:24:00,
2013-01-15 20:29:00,37.7,25.5,30.20,NW,315,0.0,8.7,61,0.00,,,0.02,WUHU216HW,2013-01-16 02:29:00,
2013-01-15 20:34:00,37.7,25.5,30.20,North,0,3.8,8.7,61,0.00,,,0.02,WUHU216HW,2013-01-16 02:34:00,
2013-01-15 20:39:00,37.7,25.5,30.20,NNW,338,0.0,3.8,61,0.00,,,0.02,WUHU216HW,2013-01-16 02:39:00,
2013-01-15 20:44:00,37.5,25.3,30.20,NW,315,0.0,0.0,61,0.00,,,0.02,WUHU216HW,2013-01-16 02:44:00,
2013-01-15 20:49:00,37.4,25.1,30.20,North,0,0.0,0.0,61,0.00,,,0.02,WUHU216HW,2013-01-16 02:49:00,
2013-01-15 20:54:00,37.2,24.9,30.20,NNE,23,0.0,6.4,61,0.00,,,0.02,WUHU216HW,2013-01-16 02:54:00,
2013-01-15 20:59:00,37.2,24.9,30.20,NNW,338,0.0,6.4,61,0.00,,,0.02,WUHU216HW,2013-01-16 02:59:00,
2013-01-15 21:04:00,37.2,24.9,30.20,North,0,0.0,4.2,61,0.00,,,0.02,WUHU216HW,2013-01-16 03:04:00,
2013-01-15 21:09:00,37.2,24.9,30.20,West,270,0.0,4.2,61,0.00,,,0.02,WUHU216HW,2013-01-16 03:09:00,
2013-01-15 21:14:00,37.0,24.8,30.19,NNW,338,0.0,0.0,61,0.00,,,0.02,WUHU216HW,2013-01-16 03:14:00,
2013-01-15 21:19:00,36.8,24.6,30.20,North,0,0.0,0.0,61,0.00,,,0.02,WUHU216HW,2013-01-16 03:19:00,
2013-01-15 21:24:00,36.6,24.5,30.20,North,0,0.0,0.0,61,0.00,,,0.02,WUHU216HW,2013-01-16 03:24:00,
2013-01-15 21:29:00,36.6,24.5,30.20,North,0,0.0,0.0,61,0.00,,,0.02,WUHU216HW,2013-01-16 03:29:00,
2013-01-15 21:34:00,36.5,24.3,30.20,NNW,338,0.0,0.0,61,0.00,,,0.02,WUHU216HW,2013-01-16 03:34:00,
2013-01-15 21:39:00,36.5,24.3,30.19,NNE,23,0.0,0.0,61,0.00,,,0.02,WUHU216HW,2013-01-16 03:39:00,
2013-01-15 21:45:00,36.5,24.3,30.18,North,0,0.0,0.0,61,0.00,,,0.02,WUHU216HW,2013-01-16 03:45:00,
2013-01-15 21:50:00,36.5,24.3,30.18,North,0,0.0,0.0,61,0.00,,,0.02,WUHU216HW,2013-01-16 03:50:00,
2013-01-15 21:55:00,36.8,25.0,30.18,North,0,5.8,5.8,62,0.00,,,0.02,WUHU216HW,2013-01-16 03:55:00,
2013-01-15 22:00:00,37.2,24.9,30.18,NNW,338,0.0,5.8,61,0.00,,,0.02,WUHU216HW,2013-01-16 04:00:00,
2013-01-15 22:05:00,36.6,24.5,30.18,North,0,0.0,0.0,61,0.00,,,0.02,WUHU216HW,2013-01-16 04:05:00,
2013-01-15 22:10:00,36.3,24.1,30.18,NW,315,0.0,0.0,61,0.00,,,0.02,WUHU216HW,2013-01-16 04:10:00,
2013-01-15 22:15:00,36.3,24.1,30.18,NNE,23,0.0,0.0,61,0.00,,,0.02,WUHU216HW,2013-01-16 04:15:00,
2013-01-15 22:20:00,35.9,24.0,30.18,NNW,338,0.0,0.0,61,0.00,,,0.02,WUHU216HW,2013-01-16 04:20:00,
2013-01-15 22:25:00,35.9,23.8,30.18,NNW,338,0.0,0.0,61,0.00,,,0.02,WUHU216HW,2013-01-16 04:25:00,
2013-01-15 22:30:00,35.7,23.7,30.18,NNW,338,0.0,0.0,61,0.00,,,0.02,WUHU216HW,2013-01-16 04:30:00,
2013-01-15 22:35:00,35.7,23.7,30.19,North,0,0.0,0.0,61,0.00,,,0.02,WUHU216HW,2013-01-16 04:35:00,
2013-01-15 22:40:00,35.7,23.7,30.18,North,0,0.0,0.0,61,0.00,,,0.02,WUHU216HW,2013-01-16 04:40:00,
2013-01-15 22:45:00,35.4,23.3,30.18,NW,315,0.0,0.0,61,0.00,,,0.02,WUHU216HW,2013-01-16 04:45:00,
2013-01-15 22:50:00,35.4,23.3,30.18,NW,315,1.7,1.7,61,0.00,,,0.02,WUHU216HW,2013-01-16 04:50:00,
2013-01-15 22:55:00,35.4,23.3,30.18,NNE,23,4.2,7.1,61,0.00,,,0.02,WUHU216HW,2013-01-16 04:55:00,
2013-01-15 23:00:00,35.2,22.8,30.18,NNE,23,0.0,7.1,60,0.00,,,0.02,WUHU216HW,2013-01-16 05:00:00,
2013-01-15 23:02:00,35.2,22.8,30.18,NNE,23,0.0,7.1,60,0.00,,,0.02,WUHU216HW,2013-01-16 05:02:00,
2013-01-15 23:03:00,35.2,22.8,30.17,NNW,338,0.0,7.1,60,0.00,,,0.02,WUHU216HW,2013-01-16 05:03:00,
2013-01-15 23:08:00,35.2,22.8,30.18,North,0,0.0,6.2,60,0.00,,,0.02,WUHU216HW,2013-01-16 05:08:00,
2013-01-15 23:13:00,35.2,22.8,30.18,NNW,338,0.0,0.0,60,0.00,,,0.02,WUHU216HW,2013-01-16 05:13:00,
2013-01-15 23:18:00,34.8,22.4,30.18,NNE,23,0.0,6.0,60,0.00,,,0.02,WUHU216HW,2013-01-16 05:18:00,
2013-01-15 23:23:00,34.8,22.4,30.18,NNW,338,0.0,6.0,60,0.00,,,0.02,WUHU216HW,2013-01-16 05:23:00,
2013-01-15 23:28:00,34.8,22.4,30.18,WNW,293,0.0,0.0,60,0.00,,,0.02,WUHU216HW,2013-01-16 05:28:00,
2013-01-15 23:34:00,34.8,22.4,30.18,NNE,23,0.0,0.0,60,0.00,,,0.02,WUHU216HW,2013-01-16 05:34:00,
2013-01-15 23:39:00,34.7,22.2,30.18,NNW,338,0.0,0.0,60,0.00,,,0.02,WUHU216HW,2013-01-16 05:39:00,
2013-01-15 23:44:00,34.5,22.1,30.18,NW,315,0.0,0.0,60,0.00,,,0.02,WUHU216HW,2013-01-16 05:44:00,
2013-01-15 23:49:00,34.5,22.1,30.18,North,0,0.0,0.0,60,0.00,,,0.02,WUHU216HW,2013-01-16 05:49:00,
2013-01-15 23:54:00,34.5,22.1,30.18,NNW,338,0.0,0.0,60,0.00,,,0.02,WUHU216HW,2013-01-16 05:54:00,
2013-01-15 23:59:00,34.5,22.1,30.18,NNW,338,0.0,0.0,60,0.00,,,0.02,WUHU216HW,2013-01-16 05:59:00,